Tracking 18852 objects as of 23-Nov-2017
HD Live streaming from Space Station
objects crossing your sky now

FENGYUN 1C DEB

Track FENGYUN 1C DEB now!
10-day predictions


NORAD ID: 36710
Int'l Code: 1999-025EAG
Perigee: 732.6 km
Apogee: 858.4 km
Inclination: 98.7 °
Period: 100.6 minutes
Semi major axis: 7166 km
RCS: 0.0087 m2 (small)
Launch date: May 10, 1999
Source: People's Republic of China (PRC)
Launch site: Taiyaun Space Center, China (TSC)

Note: This is SATELLITE DEBRIS
aabbcc
Your satellite tracking list
Your tracking list is empty




NASA's NSSDC Master Catalog

Two Line Element Set (TLE):
1 36710U 99025EAG 17326.37009292 +.00000862 +00000-0 +33068-3 0  9992
2 36710 098.6596 017.1808 0087802 286.0015 073.1509 14.31012488227372
Source of the keplerian elements: AFSPC